map of AFL home
AFL - Airport
Location
City:  Alta Floresta, Mato Grosso, Brazil
Name:Piloto Oswaldo Marques Dias Airport
ICAO:SBAT
IATA:AFL

Details
Type:Airport (Aerodrome, Airfield)
Use:Public/Civil
Latitude:951'58"S (-9.866091)
Longitude:5606'22"W (-56.106205)
Datum:WGS 1984
Elevation:947 ft (289 m)
Variation:17.69W (WMM2015 magnetic declination)
-0.13 annual change
Runways:1
Longest:8245 × 100 ft (2513 × 30.5 m), paved

Time
Time Zone:UTC-4 (DST-3)
Local Time:

Weather
METAR:SBAT 281100Z 07002KT 7000 NSC 25/23 Q1014
TAF:SBAT 280400Z 2806/2818 02005KT 9999 SCT010 TN21/2806Z TX33/2818Z
BECMG 2813/2815 35005KT FEW015
RMK PEN

Related Locations
Nearby:
Farthest:TAG: 12447 mi / 20032 km
Tagbilaran, PH

Find:

   beyond  
but within

Other Information
Maps:
NOTAMs:
Links:
Sources:

  
flag of Brazil
flag of Mato Grosso
  

Sectional Chart

Flight Planning
at skyvector.com

Satellite Image

Google Maps Satellite view

 

Copyright © 2004-2016 Karl L. Swartz. All rights reserved.
The Great Circle Mapper name and logo are trademarks of the Great Circle Mapper.
All other trademarks mentioned herein belong to their respective owners.
Please see credits for attibutions and further copyright information.

  Follow gcmap on Facebook Follow gcmap on Twitter Follow gcmap on Google+ GCmap on LinkedIn

hCard Microformat

Geo Microformat